Vertical_Velocity
-2 0 0 -2 -1 -1 -0 -2 -3 -2 0 1 -3 -1 1 1 2 -1 -2 3 9 7 6 1 0 -2 0 0 5 1 -1 -0 -2 1 -1 0 -0 -1 -0 -0 -1 -2 -2
-1 1 -1 -2 -1 0 1 -1 -3 -2 -1 -1 0 -3 0 1 0 -3 2 -4 -2 3 2 -4 4 4 0 2 -1 0 0 -0 -1 2 -0 -0 1 0 -0 -1 1 -0 -0
-0 0 -2 -1 -2 -0 0 -1 0 -3 -2 -2 -3 -0 1 2 1 -3 -3 -2 -1 -4 -2 1 -2 -1 1 -1 -0 -0 -2 0 1 1 -0 1 0 1 0 1 -1 0 1
2 -0 -0 -1 -1 0 0 -1 -3 -2 -1 -1 -1 -2 -1 -1 -1 0 1 -1 -2 -1 -2 -1 0 -1 0 1 -0 -0 -2 -1 -1 -0 -2 -0 -1 -2 -1 -1 0 -1 -1
3 -0 1 0 -0 -1 1 -0 -1 -2 -2 -2 -2 -2 -2 -2 -1 -2 -1 1 3 1 1 -1 -1 -1 -0 -0 -1 1 -1 1 -0 -2 -0 0 -2 -1 -1 -1 -1 -1 -1
4 1 0 -0 1 1 -1 -0 -2 -2 -1 -1 -3 -2 -3 -1 -1 -1 -0 -1 -2 -0 0 1 2 0 -2 -0 -1 -0 -1 -0 -0 -0 -1 -1 0 1 -1 -0 -1 -2 -2
-1 1 0 1 0 0 1 0 -1 -2 -4 -5 -1 0 -0 -1 -2 -2 -0 0 -1 -1 -1 -2 -1 -0 1 0 1 1 1 1 0 2 0 1 2 -0 -1 0 0 1 2
1 0 -2 0 2 1 2 2 2 2 2 1 -1 -2 -3 -0 -1 -1 -0 -0 -1 -1 -1 0 -1 -1 -1 -1 -0 -1 -0 1 -0 -1 1 0 -1 -2 2 2 1 2 1
-0 -1 -0 -2 -2 -0 1 1 1 1 1 1 1 1 1 1 2 3 0 -1 -2 -1 -2 1 -2 -1 -1 -0 -0 1 0 0 0 -0 0 1 -0 2 1 1 -1 -1 -1
-1 -1 -0 0 1 0 -1 -1 -0 -0 -0 -0 -1 -1 -1 0 1 -1 -2 -2 -1 0 3 -0 2 0 2 1 -0 2 1 2 2 0 0 -1 0 -1 1 -1 0 0 -1
-1 -0 -0 -1 0 -0 1 1 1 0 -0 -0 0 -0 0 -0 -1 -1 1 -0 -2 -3 -1 0 0 1 1 1 1 2 2 1 0 1 -0 -1 2 -0 -0 -0 -1 -1 0
-1 -0 -2 -0 -1 -0 -2 -1 -2 -2 -0 0 -0 -0 0 -0 -1 -1 -2 -2 -1 -1 -0 -1 -2 -2 -2 -2 -1 -1 -1 -1 -0 -0 -2 -2 -1 -0 0 1 2 2 1
-1 1 0 -1 -1 -1 -0 -1 -1 -2 -1 -1 -1 -1 -0 0 -0 0 -0 -1 -1 -1 -2 -3 -3 -3 -2 -2 -1 -1 -1 -2 -2 -2 -3 -1 0 -1 -2 -2 -3 -3 -2
-1 -0 1 0 -1 -1 0 -0 -1 -1 -2 -1 -2 -1 -1 -0 -0 -0 0 0 1 1 1 1 1 1 -0 -1 -2 -2 -2 -2 -2 -2 -2 1 -3 1 -1 -1 0 1 1
-2 -1 0 0 -0 -2 0 -0 0 -1 -1 -0 -0 -1 -1 -2 -2 -1 -1 -1 -0 -0 -0 -0 -0 0 1 2 2 3 3 3 2 2 2 2 2 -2 -0 0 0 0 -0
-0 -2 -1 0 -0 -0 -0 -1 -2 -1 -0 0 -0 1 -0 -1 0 1 -0 0 1 0 -0 -0 0 1 0 1 1 1 1 0 0 2 1 1 4 4 -0 -0 -0 -1 -0
-1 -1 -0 -2 1 -1 -0 0 -1 -1 -0 -2 -1 1 0 0 -1 -1 -0 -0 -1 0 -0 -1 -0 0 -1 -2 -1 -1 -1 0 0 -1 0 -1 -1 -4 4 2 -3 -0 2
4 -2 -1 -1 -0 -1 -1 -1 -0 -1 0 0 -0 -1 -0 -0 0 -2 -0 -0 -1 0 -0 -0 -1 0 -0 -0 -0 -2 -1 -1 -1 0 -0 -1 -2 6 -4 4 5 -0 -4
3 -1 -1 0 -0 -1 -1 -2 -1 -1 -1 -1 1 1 1 -0 -0 0 -1 -1 -1 -1 -1 -1 -1 -1 -1 -1 -1 -0 -1 -1 -0 -2 -1 3 -8 5 -2 -2 5 -3 3
-2 -0 -1 -0 -0 -0 -1 -2 0 -2 -1 -1 -1 0 7 -1 -0 -1 1 1 1 1 0 -1 -1 -0 0 -1 1 1 1 -0 3 -2 1 -2 6 -5 0 -2 2 2 1
-4 -3 -1 -2 -1 -2 1 -1 -1 2 -1 -3 -1 -1 -2 -0 1 2 0 -0 0 -0 1 1 0 0 1 -1 1 -1 1 -0 3 2 -2 -2 -1 2 -1 2 2 2 2
-2 -2 -0 -1 -2 -1 -2 1 -3 -3 1 -1 -1 -2 -1 -0 -0 -1 -0 -2 -1 -2 -4 -3 -2 -0 -1 -2 -1 -0 -1 0 -5 -0 -3 -2 2 -3 -2 -2 -1 -2 -4
0 -4 -3 -1 2 -1 1 -1 -2 -0 0 -2 -0 -1 -1 -0 -1 -1 -1 -1 -2 -1 -2 -2 -1 -1 -0 1 -1 2 3 -1 -6 2 -3 -5 -2 -3 -5 -3 -4 -7 -4
-3 -4 -2 -3 -1 -1 -1 -2 -3 -3 -1 -0 -1 -0 -1 -2 -0 -2 -0 -1 -1 -2 -0 -1 -0 1 0 -1 2 0 -1 1 4 11 -7 -5 -3 -1 -2 1 -2 -3 -3
-2 -3 -2 -3 -2 -3 -3 -3 -3 -3 -2 0 -1 1 0 1 -2 -1 -1 -2 -2 -0 0 1 -0 -1 -2 -1 -2 -1 -1 -2 -1 -3 7 8 3 -2 -6 0 -2 -2 -0
-2 -2 -1 -2 -2 -2 -3 -2 -2 -1 0 -2 -1 -1 -2 -2 -0 -1 -0 0 1 -0 -0 -0 -1 -1 -3 -2 -2 -1 -1 -2 -2 -6 -2 -3 -6 5 11 5 -3 1 -0
Height
5854 5852 5850 5849 5848 5847 5846 5845 5843 5843 5841 5840 5840 5838 5836 5836 5835 5834 5833 5834 5836 5840 5843 5844 5847 5849 5852 5853 5855 5857 5859 5861 5861 5862 5863 5864 5865 5866 5866 5867 5868 5869 5868
5856 5855 5853 5852 5851 5850 5850 5848 5846 5844 5843 5841 5841 5841 5840 5840 5839 5840 5839 5840 5841 5841 5844 5846 5849 5852 5853 5855 5858 5859 5860 5863 5863 5863 5865 5865 5867 5868 5869 5870 5869 5869 5868
5859 5857 5856 5855 5854 5853 5853 5851 5849 5848 5846 5844 5843 5843 5843 5843 5844 5844 5844 5846 5847 5848 5850 5852 5852 5853 5853 5856 5858 5860 5861 5862 5863 5864 5865 5866 5867 5868 5869 5869 5869 5869 5869
5861 5861 5859 5859 5858 5857 5856 5855 5853 5851 5849 5848 5847 5845 5845 5844 5845 5846 5848 5848 5848 5851 5853 5853 5855 5856 5857 5859 5861 5860 5861 5863 5863 5865 5866 5868 5868 5869 5869 5870 5870 5869 5869
5863 5863 5862 5861 5860 5860 5859 5858 5856 5854 5852 5851 5850 5850 5849 5849 5848 5849 5849 5851 5852 5853 5854 5856 5856 5858 5859 5860 5860 5861 5862 5864 5865 5865 5867 5868 5868 5870 5870 5869 5870 5869 5868
5866 5864 5864 5863 5863 5862 5861 5860 5859 5857 5855 5854 5854 5853 5853 5853 5853 5853 5853 5853 5855 5856 5857 5857 5858 5859 5859 5860 5861 5862 5863 5864 5865 5867 5867 5868 5868 5870 5869 5869 5869 5869 5868
5868 5867 5867 5865 5865 5864 5864 5862 5861 5860 5859 5858 5857 5856 5856 5856 5856 5856 5856 5857 5857 5858 5859 5860 5860 5861 5862 5862 5863 5863 5864 5865 5866 5867 5867 5868 5869 5870 5869 5869 5869 5868 5867
5870 5870 5869 5868 5867 5866 5865 5865 5864 5863 5862 5861 5861 5861 5860 5860 5860 5859 5860 5860 5860 5861 5861 5861 5862 5862 5863 5863 5864 5865 5866 5867 5867 5868 5868 5869 5870 5870 5869 5868 5867 5866 5865
5872 5871 5871 5870 5869 5868 5867 5867 5866 5865 5864 5863 5862 5861 5861 5861 5861 5860 5861 5862 5863 5864 5864 5862 5863 5863 5863 5865 5865 5866 5867 5867 5868 5868 5869 5869 5868 5867 5867 5866 5864 5863 5862
5873 5872 5872 5872 5871 5871 5870 5868 5868 5866 5865 5865 5864 5862 5861 5861 5862 5862 5863 5864 5864 5865 5863 5864 5864 5865 5866 5867 5867 5867 5868 5868 5868 5868 5868 5868 5867 5866 5865 5864 5863 5861 5860
5872 5873 5873 5872 5872 5872 5871 5870 5869 5868 5867 5866 5866 5865 5865 5864 5864 5864 5864 5864 5863 5863 5864 5864 5864 5865 5866 5867 5867 5867 5867 5867 5867 5866 5866 5865 5864 5864 5863 5861 5859 5858 5856
5871 5872 5872 5872 5872 5872 5871 5870 5870 5869 5868 5868 5868 5867 5867 5866 5865 5865 5865 5864 5864 5864 5864 5864 5864 5864 5864 5864 5864 5864 5864 5864 5863 5863 5862 5861 5861 5859 5858 5856 5854 5853 5852
5870 5870 5871 5871 5871 5871 5871 5871 5870 5870 5869 5869 5869 5868 5868 5868 5867 5866 5866 5865 5865 5864 5864 5863 5863 5863 5862 5862 5862 5862 5862 5861 5860 5859 5857 5856 5855 5853 5852 5850 5849 5848 5846
5867 5868 5869 5870 5870 5870 5870 5870 5869 5869 5869 5868 5868 5868 5868 5868 5867 5867 5866 5865 5865 5864 5863 5862 5862 5862 5861 5860 5860 5859 5858 5857 5856 5855 5853 5853 5851 5851 5849 5847 5845 5843 5841
5865 5866 5866 5867 5868 5868 5869 5868 5868 5868 5867 5867 5867 5866 5866 5866 5865 5864 5864 5863 5863 5862 5861 5861 5860 5860 5859 5858 5857 5857 5856 5854 5853 5851 5850 5849 5848 5844 5843 5842 5840 5838 5836
5861 5863 5863 5864 5865 5866 5866 5866 5865 5865 5865 5865 5864 5864 5864 5863 5862 5861 5861 5860 5859 5859 5858 5857 5857 5857 5856 5855 5854 5853 5852 5851 5849 5848 5846 5844 5844 5841 5837 5835 5833 5831 5829
5858 5858 5860 5860 5861 5862 5862 5863 5862 5862 5862 5862 5861 5861 5859 5858 5857 5856 5856 5855 5854 5854 5853 5853 5852 5851 5851 5849 5849 5847 5846 5845 5843 5842 5841 5838 5835 5835 5831 5829 5826 5825 5823
5855 5855 5856 5857 5857 5858 5858 5859 5859 5858 5858 5857 5856 5855 5854 5853 5852 5851 5851 5850 5850 5849 5848 5847 5847 5846 5845 5844 5842 5840 5839 5837 5835 5833 5831 5828 5828 5825 5821 5820 5816 5815 5811
5850 5850 5851 5852 5853 5853 5854 5854 5855 5855 5854 5853 5851 5850 5848 5848 5847 5846 5846 5845 5844 5843 5842 5841 5840 5839 5838 5837 5835 5833 5831 5829 5827 5825 5821 5821 5816 5817 5812 5810 5808 5802 5801
5843 5845 5846 5847 5848 5848 5849 5849 5850 5850 5849 5848 5846 5845 5844 5843 5842 5842 5841 5840 5839 5837 5837 5836 5835 5833 5832 5830 5829 5826 5824 5822 5820 5816 5814 5810 5809 5804 5802 5799 5796 5793 5788
5836 5839 5840 5841 5841 5842 5843 5844 5845 5845 5843 5842 5840 5839 5839 5838 5837 5836 5836 5835 5834 5833 5832 5830 5829 5827 5826 5824 5822 5820 5818 5816 5813 5810 5806 5803 5799 5796 5792 5789 5785 5781 5778
5830 5831 5832 5834 5835 5836 5836 5837 5837 5838 5837 5836 5834 5833 5833 5832 5831 5831 5830 5829 5829 5828 5827 5825 5823 5822 5821 5819 5817 5814 5811 5809 5804 5800 5796 5792 5789 5784 5780 5777 5773 5769 5766
5822 5824 5826 5827 5828 5829 5830 5830 5831 5831 5831 5829 5828 5827 5827 5826 5826 5825 5824 5824 5823 5822 5820 5819 5817 5816 5814 5812 5809 5807 5804 5800 5796 5793 5787 5783 5779 5775 5770 5766 5762 5758 5754
5815 5817 5818 5820 5821 5822 5823 5824 5824 5825 5824 5822 5822 5821 5820 5820 5820 5819 5819 5818 5816 5815 5813 5812 5810 5809 5807 5804 5802 5799 5796 5793 5790 5787 5779 5774 5770 5766 5761 5757 5752 5747 5742
5807 5809 5810 5812 5814 5815 5816 5817 5817 5818 5817 5816 5815 5814 5814 5814 5814 5813 5812 5811 5809 5808 5807 5806 5804 5802 5800 5797 5794 5790 5787 5783 5781 5777 5775 5769 5762 5756 5750 5746 5741 5736 5730
5797 5800 5800 5803 5806 5808 5809 5809 5810 5809 5808 5808 5808 5808 5808 5808 5807 5806 5805 5804 5803 5802 5801 5799 5797 5795 5792 5789 5785 5782 5778 5775 5771 5768 5763 5759 5754 5747 5741 5736 5730 5725 5719